Volver al catálogo

FENGYUN 1C DEB

ActivoSSO
NORAD 31210·DEBRIS·🇨🇳 China

Lanzado May 10, 1999 desde Taiyuan Satellite Launch Center

Loading…

Próximos Pases (próximas 24 horas)

TLE

EnvejeciendoSource: Space-Track

Época: Sep 10, 2026, 05:38 UTC

1 31210U 99025BKQ 26253.23475894  .00000347  00000-0  21156-3 0  9994
2 31210  98.7277 251.9718 0018038 104.6078 317.7197 14.12306143997991

Sigue FENGYUN 1C DEB en tiempo real con AllMySat

Download on the App Store